FW9346 Weather Reports


Display with metric or nautical units.
time (UTC)temp
F
wind
direction
speed
MPH
gust
MPH
rain 1hr
in
rain 24hr
in
rain mn
in
humidity
%
barometer
mb
20260502163042 59 265 5.0 11.0 0.00 0.00 0.00 37 1021.4
20260502161544 59 332 6.0 11.0 0.00 0.00 0.00 38 1021.4
20260502151547 54 309 7.0 12.0 0.00 0.00 0.00 44 1021.9
20260502150105 54 258 4.0 10.0 0.00 0.00 0.00 44 1021.9
20260502123054 36 321 2.0 5.0 0.00 0.00 0.00 71 1021.8
20260502121538 36 341 1.0 5.0 0.00 0.00 0.00 71 1021.7
20260502114543 35 347 3.0 8.0 0.00 0.00 0.00 72 1021.5
20260502113041 34 0 1.0 8.0 0.00 0.00 0.00 74 1021.4
20260502111553 33 339 2.0 6.0 0.00 0.00 0.00 75 1021.6
20260502110042 33 325 2.0 5.0 0.00 0.00 0.00 76 1021.4
20260502104545 33 331 1.0 5.0 0.00 0.00 0.00 75 1021.5
20260502103043 32 337 1.0 4.0 0.00 0.00 0.00 76 1021.5
20260502101546 33 333 2.0 4.0 0.00 0.00 0.00 72 1021.5
20260502070048 42 46 3.0 4.0 0.00 0.00 0.00 59 1021.2
20260502064538 42 58 3.0 5.0 0.00 0.00 0.00 58 1021.2
20260502063112 43 70 3.0 5.0 0.00 0.00 0.00 58 1021.1
20260502061549 43 73 3.0 8.0 0.00 0.00 0.00 58 1021.1
20260502060042 42 77 2.0 4.0 0.00 0.00 0.00 59 1020.9
20260502054549 43 82 2.0 4.0 0.00 0.00 0.00 59 1020.8
20260502053055 44 81 2.0 4.0 0.00 0.00 0.00 58 1020.7
20260502051545 44 86 2.0 4.0 0.00 0.00 0.00 56 1020.7
20260502050043 44 73 3.0 6.0 0.00 0.00 0.00 56 1020.6
20260502044548 45 84 2.0 4.0 0.00 0.00 0.00 54 1020.3
20260502043041 46 86 2.0 7.0 0.00 0.00 0.00 53 1020.3
20260502041554 46 82 4.0 7.0 0.00 0.00 0.00 52 1020.3
20260502040046 47 91 4.0 8.0 0.00 0.00 0.00 51 1020.3
20260502034552 47 84 5.0 9.0 0.00 0.00 0.00 50 1019.9
20260502033051 48 86 4.0 7.0 0.00 0.00 0.00 49 1020.0
20260502031549 48 83 4.0 9.0 0.00 0.00 0.00 48 1019.8
20260502030050 49 84 3.0 7.0 0.00 0.00 0.00 47 1019.7
20260502024543 50 80 4.0 8.0 0.00 0.00 0.00 46 1019.4
20260502023047 50 360 4.0 9.0 0.00 0.00 0.00 45 1019.2
20260502021550 51 360 5.0 9.0 0.00 0.00 0.00 45 1018.9
20260502020042 52 360 6.0 11.0 0.00 0.00 0.00 45 1018.6
20260502014543 53 360 8.0 11.0 0.00 0.00 0.00 43 1018.4
20260502013043 54 360 8.0 14.0 0.00 0.00 0.00 42 1018.2
20260502011548 55 360 5.0 11.0 0.00 0.00 0.00 43 1018.0
20260502010050 56 360 3.0 10.0 0.00 0.00 0.00 42 1017.9
20260502004546 57 360 7.0 15.0 0.00 0.00 0.00 41 1017.7
20260502003043 58 360 9.0 17.0 0.00 0.00 0.00 40 1017.5
20260502001542 59 360 10.0 16.0 0.00 0.00 0.00 39 1017.4
20260502000045 59 36 11.0 19.0 0.00 0.00 0.00 39 1017.2
20260501234546 60 33 9.0 16.0 0.00 0.00 0.00 38 1017.1
20260501233043 60 19 10.0 17.0 0.00 0.00 0.00 37 1017.1
20260501231554 60 47 10.0 18.0 0.00 0.00 0.00 38 1017.1
20260501230046 60 49 8.0 18.0 0.00 0.00 0.00 38 1017.1
20260501224547 60 52 9.0 19.0 0.00 0.00 0.00 39 1017.3
20260501223048 61 34 7.0 18.0 0.00 0.00 0.00 38 1017.3
20260501221605 62 5 9.0 22.0 0.00 0.00 0.00 37 1017.2
20260501220045 61 335 4.0 16.0 0.00 0.00 0.00 39 1017.4
20260501214550 61 20 7.0 15.0 0.00 0.00 0.00 39 1017.3
20260501213041 60 5 9.0 16.0 0.00 0.00 0.00 38 1017.5
20260501211606 61 24 11.0 17.0 0.00 0.00 0.00 39 1017.6
20260501210041 60 296 7.0 17.0 0.00 0.00 0.00 38 1017.7
20260501204539 61 82 9.0 16.0 0.00 0.00 0.00 39 1017.9
20260501203050 60 296 10.0 17.0 0.00 0.00 0.00 40 1018.0
20260501201551 60 87 10.0 15.0 0.00 0.00 0.00 41 1018.3
20260501200044 60 360 8.0 16.0 0.00 0.00 0.00 41 1018.2
20260501194554 60 360 4.0 19.0 0.00 0.00 0.00 41 1018.4
20260501193045 60 360 7.0 15.0 0.00 0.00 0.00 41 1018.4
20260501191552 59 360 7.0 15.0 0.00 0.00 0.00 42 1018.5
20260501190047 59 360 12.0 20.0 0.00 0.00 0.00 42 1018.5
20260501184543 59 360 10.0 18.0 0.00 0.00 0.00 44 1018.6
20260501183050 58 360 3.0 16.0 0.00 0.00 0.00 45 1018.6
20260501181541 57 360 7.0 14.0 0.00 0.00 0.00 45 1018.8
20260501180052 57 360 6.0 14.0 0.00 0.00 0.00 47 1018.9
20260501174551 57 360 5.0 15.0 0.00 0.00 0.00 48 1019.2
20260501173045 56 360 8.0 17.0 0.00 0.00 0.00 48 1019.3
20260501171552 56 360 5.0 14.0 0.00 0.00 0.00 51 1019.3
20260501170051 55 360 5.0 14.0 0.00 0.00 0.00 50 1019.5